Location: Strawberry
(45.6646°N, 111.9596°W)
Time: 21:27:29
(UTC+00:00)

Explorer 11/Cluster Stage 4 - Pass Details

Date: 11 October 2022
Orbit: 466 x 1248 km, 28.8° (Epoch: 28 November)

Event Time Altitude Azimuth Distance (km) Brightness Sun altitude
Rises 15:30:08 0° 220° (SW) 3,778 10.0 17.3°
Reaches altitude 10° 15:33:44 10° 202° (SSW) 2,956 9.7 17.8°
Maximum altitude 15:38:21 18° 164° (SSE) 2,553 10.1 18.5°
Drops below altitude 10° 15:43:15 10° 126° (SE) 3,179 12.1 19.2°
Sets 15:47:20 0° 109° (ESE) 4,179 11.7 19.8°
